This is the latest recevied weather packets stored in our database for station/object N4NVD-13. If no packets are shown the sender has not sent any weather packets the latest 10 day(s).
| Time | Temp. | Humidity | Pressure | Rain* | Wind** | Luminosity | Snow |
|---|---|---|---|---|---|---|---|
| 1777665465 | 14.44° C | 99% | 1010.9 hPa | 0 mm | - | 39 W/m² | - |
| 1777665161 | 14.44° C | 99% | 1010.6 hPa | 0 mm | - | 31 W/m² | - |
| 1777664857 | 14.44° C | 99% | 1010.6 hPa | 0 mm | - | 55 W/m² | - |
| 1777664553 | 14.44° C | 99% | 1010.7 hPa | 0 mm | - | 55 W/m² | - |
| 1777664250 | 14.44° C | 99% | 1010.3 hPa | 0 mm | - | 73 W/m² | - |
| 1777663948 | 14.44° C | 99% | 1010.2 hPa | 0 mm | - | 106 W/m² | - |
| 1777663645 | 14.44° C | 99% | 1010.8 hPa | 0 mm | - | 82 W/m² | - |
| 1777663342 | 15° C | 99% | 1011.6 hPa | 0 mm | - | 71 W/m² | - |
| 1777663040 | 15° C | 99% | 1011.5 hPa | 0 mm | - | 51 W/m² | - |
| 1777662737 | 15° C | 99% | 1011.1 hPa | 0 mm | - | 99 W/m² | - |
| 1777662433 | 14.44° C | 99% | 1010.9 hPa | 0 mm | - | 106 W/m² | - |
| 1777662129 | 14.44° C | 99% | 1010.5 hPa | 0 mm | - | 70 W/m² | - |
| 1777661825 | 14.44° C | 99% | 1010.8 hPa | 0 mm | - | 43 W/m² | - |
| 1777661521 | 15° C | 99% | 1011.6 hPa | 0 mm | - | 21 W/m² | - |
| 1777661216 | 15° C | 99% | 1011.6 hPa | 0 mm | - | 16 W/m² | - |
| 1777660911 | 15° C | 99% | 1011.2 hPa | 0 mm | - | 28 W/m² | - |
| 1777660608 | 15° C | 99% | 1011.6 hPa | 0 mm | - | 32 W/m² | - |
| 1777660304 | 15° C | 99% | 1011.2 hPa | 0 mm | - | 32 W/m² | - |
| 1777660001 | 15° C | 99% | 1011.3 hPa | 0 mm | - | 32 W/m² | - |
| 1777659698 | 15° C | 99% | 1010.6 hPa | 0 mm | - | 61 W/m² | - |
| 1777659395 | 15° C | 99% | 1010.2 hPa | 0 mm | - | 79 W/m² | - |
| 1777659092 | 15° C | 99% | 1010 hPa | 0 mm | - | 116 W/m² | - |
| 1777658790 | 15° C | 99% | 1009.9 hPa | 0 mm | - | 106 W/m² | - |
| 1777658486 | 15° C | 99% | 1010 hPa | 0 mm | - | 89 W/m² | - |
| 1777658183 | 15° C | 99% | 1009.7 hPa | 0 mm | - | 171 W/m² | - |
* Rain latest hour (hover to see other rain measurements)
** Current wind speed in m/s (hover to see current wind gust speed)